Location: G�kdere
(37.0328°N, 30.9000°E)
Time: 05:44:14
(UTC+00:00)

MetOp-A - Pass Details

Date: 03 March 2021
Orbit: 819 x 821 km, 98.5° (Epoch: 20 April)

Event Time Altitude Azimuth Distance (km) Brightness Sun altitude
Exits shadow 17:45:14 24° 166° (SSE) 1,648 5.5 -23.2°
Maximum altitude 17:48:35 90° 317° (NW) 827 4.0 -23.9°
Drops below altitude 10° 17:53:59 10° 347° (NNW) 2,425 6.8 -24.9°
Sets 17:56:20 0° 348° (NNW) 3,362 7.6 -25.4°
